Weather History for Watford City, ND

Change the Weather History Date:

Wednesday, December 5, 2012

  Actual Average (KISN) Record (KISN)
Temperature  
Mean Temperature 36 °F 17 °F  
Max Temperature 48 °F 27 °F 60 °F (1939)
Min Temperature 23 °F 7 °F -28 °F (1972)
Degree Days  
Heating Degree Days 30 48  
Month to date heating degree days 236  
Since 1 July heating degree days 2398  
Cooling Degree Days 0 0  
Month to date cooling degree days 0  
Year to date cooling degree days 456  
Moisture  
Dew Point 26 °F    
Average Humidity 68    
Maximum Humidity 86    
Minimum Humidity 50    
Precipitation  
Precipitation 0.00 in 0.02 in 0.51 in (2001)
Month to date precipitation 0.10  
Year to date precipitation 13.85  
Snow  
Snow 0.00 in 0.20 in 4.40 in (2001)
Month to date snowfall 1.2  
Since 1 July snowfall 10.1  
Snow Depth -    
Sea Level Pressure  
Sea Level Pressure 29.71 in    
Wind  
Wind Speed 9 mph (SSW)    
Max Wind Speed 20 mph    
Max Gust Speed 29 mph    
Visibility 10 miles    
Events      
T = Trace of Precipitation, MM = Missing Value Source: NWS Daily Summary

Daily Weather History Graph

Daily Weather History Graph

Search for Another Location

Airport:

Trip Planner

Search our weather history database for the weather conditions in past years. The results will help you decide how hot, cold, wet, or windy it might be!

Date:

Astronomy

Dec. 05, 2012 Rise Set
Actual Time 8:26 AM CST 5:01 PM CST
Civil Twilight 7:50 AM CST 5:36 PM CST
Nautical Twilight 7:11 AM CST 6:16 PM CST
Astronomical Twilight 6:34 AM CST 6:53 PM CST
Moon No Moon Rise 12:30 PM CST (12/5)
Length of Visible Light 9h 46m
Length of Day
8h 34m
Waning Gibbous, 59% of the Moon is Illuminated
Dec 5
Waning Gibbous
Dec 6
Last Quarter
Dec 13
New
Dec 19
First Quarter
Dec 28
Full

Hourly Weather History & Observations

Time (CST) Temp. Windchill Dew Point Humidity Pressure Visibility Wind Dir Wind Speed Gust Speed Precip Events Conditions
12:15 AM 23.0 °F 13.1 °F 17.6 °F 80% 29.96 in 10.0 mi ESE 9.2 mph - N/A   Clear
12:35 AM 24.8 °F 16.1 °F 19.4 °F 80% 29.95 in 10.0 mi ESE 8.1 mph - N/A   Clear
12:55 AM 24.8 °F 13.4 °F 19.4 °F 80% 29.94 in 10.0 mi SE 12.7 mph - N/A   Clear
1:15 AM 24.8 °F 14.6 °F 19.4 °F 80% 29.94 in 10.0 mi SE 10.4 mph - N/A   Clear
1:55 AM 26.6 °F 17.5 °F 19.4 °F 74% 29.92 in 10.0 mi SE 9.2 mph - N/A   Clear
2:15 AM 26.6 °F 19.1 °F 19.4 °F 74% 29.91 in 10.0 mi SE 6.9 mph - N/A   Clear
2:35 AM 26.6 °F 19.1 °F 19.4 °F 74% 29.90 in 10.0 mi SE 6.9 mph - N/A   Clear
2:55 AM 26.6 °F 21.2 °F 19.4 °F 74% 29.89 in 10.0 mi East 4.6 mph - N/A   Clear
3:15 AM 24.8 °F 16.9 °F 19.4 °F 80% 29.89 in 10.0 mi East 6.9 mph - N/A   Clear
3:35 AM 24.8 °F 14.6 °F 19.4 °F 80% 29.87 in 10.0 mi ESE 10.4 mph - N/A   Clear
3:55 AM 23.0 °F 11.7 °F 19.4 °F 86% 29.85 in 10.0 mi ESE 11.5 mph - N/A   Clear
4:15 AM 23.0 °F 12.4 °F 19.4 °F 86% 29.84 in 10.0 mi ESE 10.4 mph - N/A   Clear
4:35 AM 23.0 °F 13.9 °F 19.4 °F 86% 29.83 in 10.0 mi ESE 8.1 mph - N/A   Clear
4:55 AM 23.0 °F 13.1 °F 19.4 °F 86% 29.81 in 10.0 mi ESE 9.2 mph - N/A   Partly Cloudy
5:15 AM 23.0 °F 13.9 °F 19.4 °F 86% 29.80 in 10.0 mi ESE 8.1 mph - N/A   Scattered Clouds
5:35 AM 23.0 °F - 19.4 °F 86% 29.80 in 10.0 mi Calm Calm - N/A   Mostly Cloudy
5:55 AM 23.0 °F 18.4 °F 19.4 °F 86% 29.79 in 10.0 mi ESE 3.5 mph - N/A   Partly Cloudy
6:15 AM 23.0 °F 17.0 °F 19.4 °F 86% 29.78 in 10.0 mi ESE 4.6 mph - N/A   Clear
6:35 AM 23.0 °F - 19.4 °F 86% 29.78 in 10.0 mi Calm Calm - N/A   Clear
6:55 AM 23.0 °F 13.1 °F 19.4 °F 86% 29.77 in 10.0 mi ESE 9.2 mph - N/A   Clear
8:35 AM 24.8 °F 13.4 °F 19.4 °F 80% 29.72 in 10.0 mi ESE 12.7 mph - N/A   Clear
8:55 AM 24.8 °F 14.6 °F 19.4 °F 80% 29.70 in 10.0 mi ESE 10.4 mph - N/A   Clear
9:15 AM 26.6 °F 17.5 °F 21.2 °F 80% 29.68 in 10.0 mi East 9.2 mph - N/A   Clear
9:35 AM 32.0 °F 24.8 °F 23.0 °F 69% 29.68 in 10.0 mi South 8.1 mph - N/A   Clear
9:55 AM 35.6 °F 30.7 °F 24.8 °F 65% 29.68 in 10.0 mi South 5.8 mph - N/A   Clear
10:15 AM 35.6 °F 31.7 °F 24.8 °F 65% 29.68 in 9.0 mi SSE 4.6 mph - N/A   Clear
10:35 AM 35.6 °F - 24.8 °F 65% 29.68 in 10.0 mi Calm Calm - N/A   Clear
10:55 AM 37.4 °F 32.8 °F 26.6 °F 65% 29.67 in 10.0 mi South 5.8 mph - N/A   Clear
11:15 AM 39.2 °F 34.2 °F 26.6 °F 61% 29.65 in 10.0 mi SSE 6.9 mph - N/A   Clear
11:35 AM 41.0 °F 36.4 °F 26.6 °F 57% 29.64 in 10.0 mi SSE 6.9 mph - N/A   Clear
11:55 AM 42.8 °F 37.5 °F 26.6 °F 53% 29.62 in 10.0 mi SSE 9.2 mph - N/A   Clear
12:15 PM 42.8 °F 38.6 °F 26.6 °F 53% 29.61 in 10.0 mi South 6.9 mph - N/A   Clear
12:35 PM 44.6 °F 42.2 °F 28.4 °F 53% 29.60 in 10.0 mi SSW 4.6 mph - N/A   Clear
12:55 PM 46.4 °F 43.5 °F 28.4 °F 50% 29.59 in 10.0 mi SSW 5.8 mph - N/A   Partly Cloudy
1:15 PM 46.4 °F 42.9 °F 28.4 °F 50% 29.59 in 10.0 mi SSW 6.9 mph - N/A   Clear
1:35 PM 46.4 °F 42.4 °F 30.2 °F 53% 29.58 in 10.0 mi SSW 8.1 mph - N/A   Clear
1:55 PM 46.4 °F 42.4 °F 30.2 °F 53% 29.57 in 10.0 mi SW 8.1 mph - N/A   Partly Cloudy
2:15 PM 46.4 °F 41.9 °F 30.2 °F 53% 29.57 in 10.0 mi SW 9.2 mph - N/A   Clear
2:35 PM 46.4 °F 44.3 °F 30.2 °F 53% 29.56 in 10.0 mi West 4.6 mph - N/A   Clear
2:55 PM 48.2 °F - 30.2 °F 50% 29.56 in 10.0 mi West 3.5 mph - N/A   Clear
3:15 PM 46.4 °F 43.5 °F 32.0 °F 57% 29.55 in 10.0 mi SW 5.8 mph - N/A   Clear
3:35 PM 46.4 °F 42.9 °F 32.0 °F 57% 29.55 in 10.0 mi WSW 6.9 mph - N/A   Clear
3:55 PM 46.4 °F 42.9 °F 32.0 °F 57% 29.56 in 10.0 mi WSW 6.9 mph - N/A   Clear
4:15 PM 44.6 °F 41.4 °F 32.0 °F 61% 29.56 in 10.0 mi SW 5.8 mph - N/A   Clear
4:35 PM 42.8 °F 39.3 °F 32.0 °F 66% 29.56 in 10.0 mi WSW 5.8 mph - N/A   Clear
4:55 PM 44.6 °F 39.7 °F 32.0 °F 61% 29.57 in 10.0 mi SW 9.2 mph - N/A   Clear
5:15 PM 44.6 °F 40.7 °F 32.0 °F 61% 29.56 in 10.0 mi WSW 6.9 mph - N/A   Clear
5:35 PM 41.0 °F 35.2 °F 32.0 °F 70% 29.58 in 10.0 mi WSW 9.2 mph - N/A   Clear
5:55 PM 41.0 °F 35.2 °F 32.0 °F 70% 29.60 in 10.0 mi West 9.2 mph - N/A   Partly Cloudy
6:15 PM 42.8 °F 35.4 °F 32.0 °F 66% 29.62 in 10.0 mi West 15.0 mph 21.9 mph N/A   Partly Cloudy
6:35 PM 44.6 °F 38.1 °F 32.0 °F 61% 29.64 in 10.0 mi West 13.8 mph - N/A   Clear
6:55 PM 46.4 °F 39.5 °F 32.0 °F 57% 29.66 in 10.0 mi WNW 17.3 mph 28.8 mph N/A   Clear
7:15 PM 44.6 °F 36.6 °F 28.4 °F 53% 29.67 in 10.0 mi WNW 19.6 mph 26.5 mph N/A   Clear
7:35 PM 42.8 °F 35.1 °F 26.6 °F 53% 29.68 in 10.0 mi WNW 16.1 mph 23.0 mph N/A   Scattered Clouds
7:55 PM 41.0 °F 34.3 °F 24.8 °F 53% 29.69 in 10.0 mi WNW 11.5 mph 18.4 mph N/A   Scattered Clouds
8:15 PM 41.0 °F 33.1 °F 24.8 °F 53% 29.70 in 10.0 mi WNW 15.0 mph 24.2 mph N/A   Clear
8:35 PM 41.0 °F 31.9 °F 26.6 °F 57% 29.72 in 10.0 mi WNW 19.6 mph 24.2 mph N/A   Clear
8:55 PM 39.2 °F 30.5 °F 28.4 °F 65% 29.73 in 10.0 mi WNW 16.1 mph 24.2 mph N/A   Clear
9:15 PM 39.2 °F 31.2 °F 28.4 °F 65% 29.73 in 10.0 mi WNW 13.8 mph 20.7 mph N/A   Clear
9:35 PM 37.4 °F 28.2 °F 28.4 °F 70% 29.73 in 10.0 mi WNW 16.1 mph 28.8 mph N/A   Clear
9:55 PM 37.4 °F 28.2 °F 28.4 °F 70% 29.73 in 10.0 mi WNW 16.1 mph 27.6 mph N/A   Clear
10:15 PM 37.4 °F 28.9 °F 28.4 °F 70% 29.74 in 10.0 mi WNW 13.8 mph 20.7 mph N/A   Clear
10:35 PM 35.6 °F 27.1 °F 28.4 °F 75% 29.75 in 10.0 mi West 12.7 mph - N/A   Clear
10:55 PM 35.6 °F 27.1 °F 28.4 °F 75% 29.76 in 10.0 mi West 12.7 mph 18.4 mph N/A   Clear
11:15 PM 35.6 °F 27.1 °F 28.4 °F 75% 29.77 in 10.0 mi West 12.7 mph 24.2 mph N/A   Clear
11:35 PM 35.6 °F 26.2 °F 28.4 °F 75% 29.77 in 10.0 mi West 15.0 mph 24.2 mph N/A   Clear
11:55 PM 35.6 °F 26.6 °F 28.4 °F 75% 29.79 in 10.0 mi West 13.8 mph 21.9 mph N/A   Clear